Flag for Poland Weather past 2 weeks in Wroclaw, Poland

Now
79 °F

Sunny.


Feels Like: 80 °F
Forecast: 58 / 89 °F
Wind: 7 mph from Northwest

Location: Wroclaw Ii

Current Time: Jul 6, 2015 at 8:15:52 PM

Latest Report: Jul 6, 2015 at 8:00 PM


Visibility: 10 mi

Pressure: 30.09 "Hg

Humidity: 48%

Dew point: 57 °F

Location of WroclawLocation

Historic Weather in Wroclaw — Graph

°F

Wroclaw temperature yesterday

Maximum temperature yesterday: 93 °F (at 12:00 PM)
Minimum temperature yesterday: 63 °F (at 5:00 AM)
Average temperature yesterday: 80 °F

Past Weeks' High & Low Weather Summary

 TemperatureHumidityPressure
High95 °F (Jul 4, 3:00 PM)100% (Jun 22, 5:30 AM)30.36 "Hg (Jun 22, 5:30 AM)
Low46 °F (Jun 22, 4:30 AM)21% (Jul 5, 6:00 PM)29.68 "Hg (Jun 23, 7:30 AM)
Average68 °F67%30.12 "Hg
* Reported Jun 21 8:30 PM — Jul 6 7:00 PM, Wroclaw, Weather by CustomWeather, © 2015

Note: Actual official high and low records may vary slightly from our data, if they occured in-between our weather recording intervals... More about our weather records

Advertising

Wroclaw weather history for previous 24 hours

 ConditionsComfort  
Time TempWeatherWind HumidityBarometerVisibility
7:00 PM
Mon, Jul 6
81 °FPassing clouds.12 mph42%30.09 "HgN/A
6:30 PM81 °FSunny.12 mph45%30.09 "Hg10 mi
6:00 PM81 °FSunny.13 mph48%30.09 "Hg10 mi
5:30 PM82 °FSunny.12 mph45%30.09 "Hg10 mi
5:00 PM81 °FSunny.13 mph48%30.12 "Hg10 mi
4:30 PM82 °FSunny.15 mph45%30.09 "Hg10 mi
4:00 PM82 °FSunny.18 mph45%30.12 "Hg10 mi
3:30 PM82 °FPassing clouds.21 mph48%30.09 "HgN/A
3:00 PM82 °FPassing clouds.20 mph51%30.09 "HgN/A
2:30 PM81 °FPassing clouds.17 mph58%30.09 "HgN/A
2:00 PM79 °FPassing clouds.15 mph65%30.09 "HgN/A
1:30 PM79 °FScattered clouds.15 mph65%30.09 "HgN/A
1:00 PM79 °FPassing clouds.16 mph65%30.09 "HgN/A
12:30 PM81 °FPassing clouds.20 mph58%30.09 "HgN/A
12:00 PM82 °FPassing clouds.21 mph55%30.07 "HgN/A
11:30 AM86 °FScattered clouds.18 mph52%30.07 "HgN/A
11:00 AM84 °FScattered clouds.20 mph51%30.07 "HgN/A
10:30 AM84 °FSunny.13 mph51%30.04 "Hg10 mi
10:00 AM82 °FPassing clouds.9 mph55%30.04 "HgN/A
9:30 AM81 °FPassing clouds.8 mph58%30.04 "HgN/A
9:00 AM79 °FPassing clouds.6 mph61%30.04 "HgN/A
8:30 AM77 °FSunny.7 mph69%30.04 "Hg10 mi
8:00 AM77 °FSunny.7 mph65%30.04 "Hg10 mi
7:30 AM77 °FSunny.9 mph65%30.04 "Hg10 mi
7:00 AM75 °FSunny.7 mph69%30.01 "Hg10 mi
6:30 AM73 °FSunny.6 mph74%30.01 "Hg10 mi
6:00 AM73 °FPassing clouds.5 mph74%30.01 "HgN/A
5:30 AM73 °FClear.6 mph69%30.01 "Hg10 mi
5:00 AM75 °FClear.8 mph65%30.01 "Hg10 mi
4:30 AM73 °FClear.12 mph65%29.98 "Hg10 mi
4:00 AM72 °FPassing clouds.5 mph69%29.98 "HgN/A
3:30 AM68 °FClear.6 mph83%29.98 "Hg10 mi
3:00 AM68 °FClear.5 mph83%29.95 "Hg10 mi
2:30 AM70 °FClear.5 mph78%29.95 "Hg10 mi
2:00 AM72 °FClear.6 mph73%29.95 "Hg10 mi
1:30 AM72 °FClear.5 mph78%29.95 "Hg10 mi
1:00 AM73 °FClear.6 mph74%29.95 "Hg10 mi
12:30 AM75 °FClear.3 mph69%29.98 "Hg10 mi
12:00 AM73 °FClear.5 mph74%29.98 "Hg10 mi
11:30 PM
Sun, Jul 5
73 °FClear.6 mph69%29.98 "Hg10 mi
11:00 PM75 °FClear.5 mph65%29.98 "Hg10 mi
10:30 PM81 °FClear.5 mph51%29.98 "Hg10 mi
10:00 PM81 °FSunny.3 mph51%29.98 "Hg10 mi
9:30 PM81 °FSunny.3 mph51%29.98 "Hg10 mi
9:00 PM82 °FSunny.3 mph51%29.98 "Hg10 mi
8:30 PM86 °FSunny.2 mph43%29.98 "Hg10 mi
8:00 PM88 °FSunny.3 mph40%30.01 "Hg10 mi
Weather by CustomWeather, © 2015

See weather overviewHow to use our weather pages